Location: Newark
(50.8922°N, 11.6094°E)
Time: 02:06:10
(UTC+00:00)

N. Korean satellite - Pass Details

Date: 28 January 2020
Orbit: 456 x 505 km, 97.2° (Epoch: 25 February)

Event Time Altitude Azimuth Distance (km) Brightness Sun altitude
Rises 04:24:29 0° 23° (NNE) 2,547 10.5 -23.8°
Reaches altitude 10° 04:26:48 10° 37° (NE) 1,671 9.7 -23.5°
Maximum altitude 04:29:50 25° 94° (E) 1,010 8.9 -23.0°
Drops below altitude 10° 04:32:54 10° 152° (SSE) 1,682 9.6 -22.5°
Sets 04:35:14 0° 166° (SSE) 2,567 10.4 -22.1°
